WA8SIE Weather Reports


time (UTC)temp
C
wind
direction
speed
KPH
gust
KPH
rain 1hr
cm
rain 24hr
cm
rain mn
cm
humidity
%
barometer
mb
20260509215512 20 200 6.4 0.0 0.00 0.00 0.00 57 1004.3
20260509215012 21 193 3.2 0.0 0.00 0.00 0.00 56 1004.3
20260509214511 21 205 19.3 0.0 0.00 0.00 0.00 56 1004.3
20260509214010 21 196 3.2 0.0 0.00 0.00 0.00 56 1004.3
20260509213510 21 199 12.9 0.0 0.00 0.00 0.00 54 1004.3
20260509213010 21 203 3.2 0.0 0.00 0.00 0.00 56 1004.3
20260509212510 21 35 0.0 0.0 0.00 0.00 0.00 55 1004.1
20260509212012 21 209 0.0 0.0 0.00 0.00 0.00 56 1004.1
20260509211011 21 208 0.0 0.0 0.00 0.00 0.00 54 1004.1
20260509210510 21 218 0.0 0.0 0.00 0.00 0.00 57 1004.1
20260509210011 21 198 4.8 0.0 0.00 0.00 0.00 56 1004.1
20260509205512 21 183 0.0 0.0 0.00 0.00 0.00 55 1004.3
20260509205010 21 183 3.2 0.0 0.00 0.00 0.00 59 1004.3
20260509204511 20 183 0.0 0.0 0.00 0.00 0.00 57 1004.3
20260509204014 20 183 0.0 0.0 0.00 0.00 0.00 57 1004.2
20260509203512 20 203 4.8 0.0 0.00 0.00 0.00 58 1004.2
20260509203011 21 193 20.9 0.0 0.00 0.00 0.00 57 1004.2
20260509202510 20 195 0.0 0.0 0.00 0.00 0.00 57 1004.1
20260509201511 21 231 0.0 0.0 0.00 0.00 0.00 56 1004.1
20260509201012 21 231 0.0 0.0 0.00 0.00 0.00 56 1004.1
20260509200510 21 203 0.0 0.0 0.00 0.00 0.00 55 1004.1
20260509195512 21 176 6.4 0.0 0.00 0.00 0.00 55 1004.1
20260509195012 21 167 11.3 0.0 0.00 0.00 0.00 56 1004.1
20260509194010 21 207 1.6 0.0 0.00 0.00 0.00 55 1004.0
20260509193510 21 206 0.0 0.0 0.00 0.00 0.00 54 1004.0
20260509192510 21 205 0.0 0.0 0.00 0.00 0.00 52 1004.1
20260509192010 21 203 6.4 0.0 0.00 0.00 0.00 54 1004.1
20260509191512 21 231 0.0 0.0 0.00 0.00 0.00 54 1004.1
20260509191012 21 191 0.0 0.0 0.00 0.00 0.00 55 1004.3
20260509190512 21 195 1.6 0.0 0.00 0.00 0.00 54 1004.3
20260509190012 21 191 6.4 0.0 0.00 0.00 0.00 54 1004.3
20260509185510 21 186 0.0 0.0 0.00 0.00 0.00 56 1004.3
20260509185010 21 191 4.8 0.0 0.00 0.00 0.00 56 1004.3
20260509184010 21 30 4.8 0.0 0.00 0.00 0.00 56 1004.2
20260509183510 20 188 1.6 0.0 0.00 0.00 0.00 58 1004.2
20260509182510 20 206 9.7 0.0 0.00 0.00 0.00 57 1004.5
20260509182010 20 165 1.6 0.0 0.00 0.00 0.00 58 1004.5
20260509181510 20 216 0.0 0.0 0.00 0.00 0.00 58 1004.5
20260509181011 20 342 0.0 0.0 0.00 0.00 0.00 60 1004.6
20260509180510 20 271 9.7 0.0 0.00 0.00 0.00 59 1004.6
20260509180010 19 112 0.0 0.0 0.00 0.00 0.00 58 1004.6
20260509175511 19 198 0.0 0.0 0.00 0.00 0.00 59 1004.7
20260509175011 20 199 8.0 0.0 0.00 0.00 0.00 58 1004.7
20260509174513 19 324 3.2 0.0 0.00 0.00 0.00 61 1004.7
20260509174011 19 195 0.0 0.0 0.00 0.00 0.00 61 1004.8
20260509173512 18 195 0.0 0.0 0.00 0.00 0.00 60 1004.8
20260509173013 18 176 4.8 0.0 0.00 0.00 0.00 60 1004.8
20260509172511 18 196 0.0 0.0 0.00 0.00 0.00 61 1004.8
20260509172011 18 193 9.7 0.0 0.00 0.00 0.00 59 1004.8
20260509171511 18 296 3.2 0.0 0.00 0.00 0.00 58 1004.8
20260509171011 18 195 0.0 0.0 0.00 0.00 0.00 58 1005.0
20260509170013 18 221 0.0 0.0 0.00 0.00 0.00 60 1005.0
20260509165511 18 208 4.8 0.0 0.00 0.00 0.00 58 1005.1
20260509165011 18 188 1.6 0.0 0.00 0.00 0.00 59 1005.1
20260509164511 18 177 8.0 0.0 0.00 0.00 0.00 58 1005.1
20260509164011 18 202 1.6 0.0 0.00 0.00 0.00 58 1005.0
20260509162511 18 238 0.0 0.0 0.00 0.00 0.00 60 1005.0
20260509162011 18 196 3.2 0.0 0.00 0.00 0.00 60 1005.0
20260509161511 18 195 0.0 0.0 0.00 0.00 0.00 59 1005.0
20260509161011 18 209 0.0 0.0 0.00 0.00 0.00 59 1005.0
20260509155511 18 116 0.0 0.0 0.00 0.00 0.00 60 1004.8
20260509155012 18 118 0.0 0.0 0.00 0.00 0.00 60 1004.8
20260509154511 18 300 1.6 0.0 0.00 0.00 0.00 60 1004.8
20260509154011 18 204 3.2 0.0 0.00 0.00 0.00 61 1004.6
20260509153511 17 223 0.0 0.0 0.00 0.00 0.00 61 1004.6
20260509153011 17 193 1.6 0.0 0.00 0.00 0.00 61 1004.6
20260509152511 17 172 0.0 0.0 0.00 0.00 0.00 62 1004.7
20260509152012 17 172 0.0 0.0 0.00 0.00 0.00 63 1004.7
20260509151012 17 203 1.6 0.0 0.00 0.00 0.00 63 1004.7
20260509150510 17 203 0.0 0.0 0.00 0.00 0.00 63 1004.7
20260509150011 17 203 0.0 0.0 0.00 0.00 0.00 64 1004.7
20260509145511 17 202 0.0 0.0 0.00 0.00 0.00 62 1004.9
20260509144511 16 202 0.0 0.0 0.00 0.00 0.00 64 1004.9
20260509144010 16 202 0.0 0.0 0.00 0.00 0.00 63 1004.8
20260509143511 16 202 0.0 0.0 0.00 0.00 0.00 63 1004.8
20260509143010 16 202 0.0 0.0 0.00 0.00 0.00 62 1004.8
20260509142511 16 142 0.0 0.0 0.00 0.00 0.00 63 1004.8
20260509142011 16 142 0.0 0.0 0.00 0.00 0.00 63 1004.8
20260509141511 16 142 0.0 0.0 0.00 0.00 0.00 64 1004.8
20260509141010 16 142 0.0 0.0 0.00 0.00 0.00 64 1005.0
20260509140511 16 142 0.0 0.0 0.00 0.00 0.00 67 1005.0
20260509140011 16 143 0.0 0.0 0.00 0.00 0.00 68 1005.0
20260509135511 15 142 0.0 0.0 0.00 0.00 0.00 67 1005.0
20260509135011 15 142 0.0 0.0 0.00 0.00 0.00 66 1005.0
20260509134512 15 142 0.0 0.0 0.00 0.00 0.00 67 1005.0
20260509133012 15 142 0.0 0.0 0.00 0.00 0.00 69 1004.8
20260509132512 15 142 0.0 0.0 0.00 0.00 0.00 68 1004.7
20260509132010 15 141 0.0 0.0 0.00 0.00 0.00 71 1004.7
20260509131010 14 142 0.0 0.0 0.00 0.00 0.00 73 1004.6
20260509130511 14 142 0.0 0.0 0.00 0.00 0.00 73 1004.6
20260509130010 14 143 0.0 0.0 0.00 0.00 0.00 78 1004.6
20260509125510 13 142 0.0 0.0 0.00 0.00 0.00 79 1004.7
20260509125010 13 142 0.0 0.0 0.00 0.00 0.00 80 1004.7
20260509124011 13 142 0.0 0.0 0.00 0.00 0.00 83 1004.8
20260509123511 13 142 0.0 0.0 0.00 0.00 0.00 82 1004.8
20260509123010 13 141 0.0 0.0 0.00 0.00 0.00 83 1004.8
20260509122510 12 141 0.0 0.0 0.00 0.00 0.00 84 1004.8
20260509122010 12 141 0.0 0.0 0.00 0.00 0.00 85 1004.8
20260509121511 12 141 0.0 0.0 0.00 0.00 0.00 86 1004.8
20260509121011 12 142 0.0 0.0 0.00 0.00 0.00 87 1004.6
20260509120510 12 141 0.0 0.0 0.00 0.00 0.00 87 1004.6
20260509115511 12 142 0.0 0.0 0.00 0.00 0.00 88 1004.6
20260509115012 11 142 0.0 0.0 0.00 0.00 0.00 88 1004.6
20260509114510 11 141 0.0 0.0 0.00 0.00 0.00 89 1004.6
20260509113512 11 141 0.0 0.0 0.00 0.00 0.00 90 1004.5
20260509113010 11 141 0.0 0.0 0.00 0.00 0.00 90 1004.5
20260509112510 11 142 0.0 0.0 0.00 0.00 0.00 90 1004.6
20260509112010 10 141 0.0 0.0 0.00 0.00 0.00 90 1004.6
20260509105512 10 142 0.0 0.0 0.00 0.00 0.00 90 1004.5
20260509105010 10 141 0.0 0.0 0.00 0.00 0.00 90 1004.5
20260509103012 11 141 0.0 0.0 0.00 0.00 0.00 90 1004.4
20260509102511 11 141 0.0 0.0 0.00 0.00 0.00 89 1004.4
20260509102013 11 141 0.0 0.0 0.00 0.00 0.00 89 1004.4
20260509101511 11 141 0.0 0.0 0.00 0.00 0.00 89 1004.4
20260509101013 11 141 0.0 0.0 0.00 0.00 0.00 88 1004.3
20260509100511 11 141 0.0 0.0 0.00 0.00 0.00 88 1004.3
20260509100011 11 141 0.0 0.0 0.00 0.00 0.00 88 1004.3
20260509095511 11 141 0.0 0.0 0.00 0.00 0.00 88 1004.4
20260509095011 11 141 0.0 0.0 0.00 0.00 0.00 87 1004.4
20260509094011 11 141 0.0 0.0 0.00 0.00 0.00 87 1004.4
20260509093511 11 141 0.0 0.0 0.00 0.00 0.00 87 1004.4
20260509093011 11 141 0.0 0.0 0.00 0.00 0.00 87 1004.4
20260509092011 11 141 0.0 0.0 0.00 0.00 0.00 86 1004.5
20260509091511 11 141 0.0 0.0 0.00 0.00 0.00 86 1004.5
20260509091011 11 141 0.0 0.0 0.00 0.00 0.00 87 1004.6
20260509090511 11 141 0.0 0.0 0.00 0.00 0.00 87 1004.6
20260509090011 11 141 0.0 0.0 0.00 0.00 0.00 86 1004.6
20260509085511 11 141 0.0 0.0 0.00 0.00 0.00 87 1004.6
20260509085011 11 141 0.0 0.0 0.00 0.00 0.00 87 1004.6
20260509084511 11 141 0.0 0.0 0.00 0.00 0.00 87 1004.6
20260509082511 11 141 0.0 0.0 0.00 0.00 0.00 87 1004.7
20260509082011 11 141 0.0 0.0 0.00 0.00 0.00 87 1004.7
20260509081511 11 141 0.0 0.0 0.00 0.00 0.00 86 1004.7
20260509081011 11 141 0.0 0.0 0.00 0.00 0.00 86 1004.8
20260509080511 11 141 0.0 0.0 0.00 0.00 0.00 86 1004.8
20260509080011 11 141 0.0 0.0 0.00 0.00 0.00 86 1004.8
20260509075511 10 141 0.0 0.0 0.00 0.00 0.00 87 1004.8
20260509075011 10 142 0.0 0.0 0.00 0.00 0.00 86 1004.8
20260509074513 10 141 0.0 0.0 0.00 0.00 0.00 86 1004.8
20260509074011 10 141 0.0 0.0 0.00 0.00 0.00 86 1004.8
20260509073511 10 141 0.0 0.0 0.00 0.00 0.00 86 1004.8
20260509073011 10 141 0.0 0.0 0.00 0.00 0.00 86 1004.8
20260509072011 10 141 0.0 0.0 0.00 0.00 0.00 86 1004.9
20260509071511 10 141 0.0 0.0 0.00 0.00 0.00 86 1004.9
20260509071011 10 141 0.0 0.0 0.00 0.00 0.00 86 1004.9
20260509070512 10 141 0.0 0.0 0.00 0.00 0.00 86 1004.9
20260509070011 10 141 0.0 0.0 0.00 0.00 0.00 86 1004.9
20260509064511 10 141 0.0 0.0 0.00 0.00 0.00 85 1005.0
20260509064010 10 141 0.0 0.0 0.00 0.00 0.00 85 1005.0
20260509063011 10 141 0.0 0.0 0.00 0.00 0.00 85 1005.0
20260509062511 10 141 0.0 0.0 0.00 0.00 0.00 84 1005.0
20260509061511 10 141 0.0 0.0 0.00 0.00 0.00 84 1005.0
20260509061011 10 141 0.0 0.0 0.00 0.00 0.00 84 1005.2
20260509060511 10 141 0.0 0.0 0.00 0.00 0.00 83 1005.2
20260509060011 10 141 0.0 0.0 0.00 0.00 0.00 83 1005.2
20260509055510 11 142 0.0 0.0 0.00 0.00 0.00 83 1005.2
20260509055011 11 141 0.0 0.0 0.00 0.00 0.00 82 1005.2
20260509053010 11 141 0.0 0.0 0.00 0.00 0.00 79 1005.2
20260509052012 11 141 0.0 0.0 0.00 0.00 0.00 79 1005.3
20260509051512 11 141 0.0 0.0 0.00 0.00 0.00 78 1005.3
20260509051010 11 141 0.0 0.0 0.00 0.00 0.00 78 1005.3
20260509050511 11 141 0.0 0.0 0.00 0.00 0.00 78 1005.3
20260509050011 11 141 0.0 0.0 0.00 0.00 0.00 77 1005.3
20260509045511 11 141 0.0 0.0 0.00 0.00 0.00 77 1005.3
20260509044012 12 141 0.0 0.0 0.00 0.00 0.00 76 1005.2
20260509043012 12 141 0.0 0.0 0.00 0.00 0.00 75 1005.2
20260509042510 12 141 0.0 0.0 0.00 0.00 0.00 74 1005.4
20260509042011 12 141 0.0 0.0 0.00 0.00 0.00 75 1005.4
20260509041510 12 141 3.2 0.0 0.00 0.00 0.00 75 1005.4
20260509041010 12 141 0.0 0.0 0.00 0.00 0.00 74 1005.6
20260509040510 12 142 0.0 0.0 0.00 0.00 0.00 74 1005.6
20260509040010 12 141 0.0 0.0 0.00 0.00 0.00 73 1005.6
20260509035510 12 141 0.0 0.0 0.00 0.00 0.00 73 1005.7
20260509035010 12 141 0.0 0.0 0.00 0.00 0.00 73 1005.7
20260509034510 12 141 0.0 0.0 0.00 0.00 0.00 72 1005.7
20260509034010 12 141 1.6 0.0 0.00 0.00 0.00 72 1005.8
20260509033510 12 141 0.0 0.0 0.00 0.00 0.00 71 1005.8
20260509032512 12 141 0.0 0.0 0.00 0.00 0.00 71 1005.8
20260509032010 12 141 0.0 0.0 0.00 0.00 0.00 70 1005.8
20260509031510 12 141 0.0 0.0 0.00 0.00 0.00 71 1005.8
20260509031010 12 141 0.0 0.0 0.00 0.00 0.00 70 1005.8
20260509030510 12 141 0.0 0.0 0.00 0.00 0.00 69 1005.8
20260509030010 13 141 0.0 0.0 0.00 0.00 0.00 68 1005.8
20260509025510 13 141 0.0 0.0 0.00 0.00 0.00 69 1006.0
20260509025012 13 141 3.2 0.0 0.00 0.00 0.00 68 1006.0
20260509024510 13 196 0.0 0.0 0.00 0.00 0.00 67 1006.0
20260509024010 13 196 0.0 0.0 0.00 0.00 0.00 66 1006.2
20260509023510 13 196 0.0 0.0 0.00 0.00 0.00 66 1006.2
20260509023010 13 196 0.0 0.0 0.00 0.00 0.00 66 1006.2
20260509022510 13 196 0.0 0.0 0.00 0.00 0.00 66 1006.2
20260509022010 13 196 0.0 0.0 0.00 0.00 0.00 66 1006.2
20260509021512 13 196 0.0 0.0 0.00 0.00 0.00 63 1006.2
20260509021011 14 196 0.0 0.0 0.00 0.00 0.00 61 1006.2
20260509020511 14 196 0.0 0.0 0.00 0.00 0.00 61 1006.2
20260509015511 15 196 0.0 0.0 0.00 0.00 0.00 59 1005.9
20260509015011 15 196 0.0 0.0 0.00 0.00 0.00 58 1005.9
20260509014511 15 196 0.0 0.0 0.00 0.00 0.00 56 1005.9
20260509014011 15 196 0.0 0.0 0.00 0.00 0.00 56 1005.8
20260509013511 15 196 0.0 0.0 0.00 0.00 0.00 56 1005.8
20260509013011 15 196 0.0 0.0 0.00 0.00 0.00 55 1005.8
20260509012511 15 196 0.0 0.0 0.00 0.00 0.00 55 1005.7
20260509012011 16 196 0.0 0.0 0.00 0.00 0.00 54 1005.7
20260509011511 16 196 0.0 0.0 0.00 0.00 0.00 54 1005.7
20260509011012 16 196 0.0 0.0 0.00 0.00 0.00 54 1006.0
20260509010013 16 196 0.0 0.0 0.00 0.00 0.00 50 1006.0
20260509005011 16 196 0.0 0.0 0.00 0.00 0.00 50 1005.9
20260509004512 17 196 0.0 0.0 0.00 0.00 0.00 50 1005.9
20260509003511 17 196 0.0 0.0 0.00 0.00 0.00 46 1005.9
20260509003012 17 196 0.0 0.0 0.00 0.00 0.00 45 1005.9
20260509002511 17 196 0.0 0.0 0.00 0.00 0.00 45 1005.9
20260509002011 17 196 0.0 0.0 0.00 0.00 0.00 44 1005.9
20260509001511 18 196 0.0 0.0 0.00 0.00 0.00 41 1005.9
20260509001011 18 196 0.0 0.0 0.00 0.00 0.00 39 1004.9
20260509000511 18 196 0.0 0.0 0.00 0.00 0.00 39 1004.9
20260509000011 18 196 0.0 0.0 0.00 0.00 0.00 36 1004.9
20260508235511 19 196 0.0 0.0 0.00 0.00 0.00 35 1005.9
20260508235011 19 196 0.0 0.0 0.00 0.00 0.00 34 1005.9
20260508234011 20 224 4.8 0.0 0.00 0.00 0.00 34 1006.0
20260508233511 20 198 0.0 0.0 0.00 0.00 0.00 33 1006.0
20260508232011 20 191 0.0 0.0 0.00 0.00 0.00 31 1006.1
20260508231511 20 191 11.3 0.0 0.00 0.00 0.00 30 1006.1
20260508230511 20 214 1.6 0.0 0.00 0.00 0.00 29 1005.1
20260508230011 20 207 0.0 0.0 0.00 0.00 0.00 29 1005.1
20260508225512 20 202 0.0 0.0 0.00 0.00 0.00 30 1005.0
20260508225012 20 195 6.4 0.0 0.00 0.00 0.00 31 1005.0
20260508224511 20 185 0.0 0.0 0.00 0.00 0.00 30 1005.0
20260508224011 20 195 0.0 0.0 0.00 0.00 0.00 31 1005.0
20260508223511 21 184 3.2 0.0 0.00 0.00 0.00 30 1005.0
20260508223013 21 196 3.2 0.0 0.00 0.00 0.00 30 1005.0
20260508222511 21 181 1.6 0.0 0.00 0.00 0.00 29 1005.1
20260508222012 21 245 1.6 0.0 0.00 0.00 0.00 30 1005.1
20260508221511 21 189 3.2 0.0 0.00 0.00 0.00 33 1005.1
20260508221011 21 215 4.8 0.0 0.00 0.00 0.00 32 1005.1
20260508220511 21 181 0.0 0.0 0.00 0.00 0.00 30 1005.1